Home   Weather   Stellenbosch   Past weeks

Flag for South Africa Past Weather in Stellenbosch, South Africa — Yesterday and Last 2 Weeks

Now
52 °F

Clear.


Feels Like: 51 °F
Forecast: 43 / 64 °F
Wind: 5 mph from South

Location: Cape Town International Airport

Current Time: Jul 22, 2017 at 2:58:58 am

Latest Report: Jul 22, 2017 at 2:00 am


Visibility: 10 mi

Pressure: 30.09 "Hg

Humidity: 94%

Dew Point: 50 °F

Location of StellenboschLocation

Past Weather in Stellenbosch — Graph

°F

Stellenbosch Temperature Yesterday

Maximum temperature yesterday: 63 °F (at 2:00 pm)
Minimum temperature yesterday: 45 °F (at 4:02 am)
Average temperature yesterday: 52 °F

High & Low Weather Summary for the Past Weeks

 TemperatureHumidityPressure
High66 °F (Jul 7, 3:00 pm)100% (Jul 7, 8:00 pm)30.51 "Hg (Jul 7, 8:00 pm)
Low34 °F (Jul 12, 4:00 am)39% (Jul 14, 2:00 pm)29.92 "Hg (Jul 8, 3:00 pm)
Average53 °F76%30.18 "Hg
* Reported Jul 7 1:00 am — Jul 22 1:02 am, Stellenbosch. Weather by CustomWeather, © 2017

Note: Actual official high and low records may vary slightly from our data, if they occured in-between our weather recording intervals... More about our weather records

Advertising

Stellenbosch Weather History for the Previous 24 Hours

Scroll right to see more
 ConditionsComfort  
Time TempWeatherWind HumidityBarometerVisibility
1:02 am
Sat, Jul 22
46 °FFog.5 mph93%30.12 "Hg1 mi
12:00 am50 °FClear.3 mph94%30.12 "Hg10 mi
11:00 pm
Fri, Jul 21
50 °FClear.7 mph94%30.12 "Hg10 mi
10:00 pm48 °FClear.5 mph94%30.12 "Hg10 mi
9:11 pm52 °FClear.7 mph94%30.12 "Hg10 mi
9:00 pm48 °FClear.6 mph94%30.12 "Hg10 mi
8:00 pm54 °FPassing clouds.6 mph82%30.12 "HgN/A
7:00 pm55 °FClear.9 mph82%30.09 "Hg10 mi
6:00 pm59 °FClear.10 mph68%30.09 "Hg10 mi
5:00 pm61 °FSunny.9 mph68%30.09 "Hg10 mi
4:00 pm63 °FPassing clouds.3 mph59%30.09 "HgN/A
3:00 pm63 °FSunny.3 mph59%30.09 "Hg10 mi
2:00 pm63 °FSunny.5 mph59%30.12 "Hg10 mi
1:00 pm61 °FSunny.3 mph59%30.15 "Hg10 mi
12:30 pm61 °FPassing clouds.3 mph63%30.15 "HgN/A
12:00 pm59 °FPassing clouds.7 mph68%30.18 "HgN/A
11:00 am57 °FSunny.2 mph72%30.18 "Hg10 mi
10:30 am55 °FSunny.2 mph88%30.18 "Hg10 mi
10:00 am52 °FSunny.2 mph94%30.21 "Hg10 mi
9:30 am50 °FSunny.3 mph94%30.21 "Hg10 mi
9:00 am46 °FSunny.3 mph93%30.21 "Hg10 mi
8:00 am46 °FClear.1 mph93%30.18 "Hg6 mi
7:00 am45 °FClear.2 mph93%30.18 "Hg10 mi
6:00 am45 °FClear.2 mph93%30.18 "Hg10 mi
5:00 am45 °FClear.5 mph93%30.18 "Hg10 mi
4:14 am45 °FLight fog.2 mph93%30.18 "Hg2 mi
4:02 am45 °FFog.2 mph93%30.21 "Hg1 mi
3:00 am46 °FFog.5 mph93%30.21 "Hg0 mi
2:00 am50 °FFog.2 mph94%30.24 "Hg0 mi
Weather by CustomWeather, © 2017

See weather overviewHow to use our weather pages